DW0307 Weather Reports


Display with metric or nautical units.
time (UTC)temp
F
wind
direction
speed
MPH
gust
MPH
rain 1hr
in
rain 24hr
in
rain mn
in
humidity
%
barometer
mb
20211127110122 42 172 6.0 13.0 0.00 0.09 0.00 76 994.6
20211127104608 41 138 9.0 13.0 0.00 0.09 0.00 78 994.6
20211127103044 43 189 5.0 10.0 0.00 0.09 0.00 74 994.5
20211127101548 42 193 2.0 6.0 0.00 0.09 0.00 76 994.5
20211127100119 41 232 4.0 9.0 0.00 0.09 0.00 79 994.7
20211127094628 40 222 5.0 9.0 0.00 0.09 0.00 79 994.6
20211127093215 40 205 5.0 10.0 0.00 0.09 0.00 78 994.4
20211127091655 39 211 6.0 9.0 0.00 0.09 0.00 78 994.4
20211127090130 38 227 3.0 10.0 0.00 0.09 0.00 81 994.4
20211127084630 38 196 3.0 6.0 0.00 0.09 0.00 81 994.3
20211127083143 37 0 3.0 8.0 0.00 0.09 0.00 85 994.2
20211127081624 35 212 5.0 9.0 0.00 0.09 0.00 85 994.1
20211127080118 35 213 4.0 7.0 0.00 0.09 0.00 87 993.9
20211127074640 34 224 6.0 10.0 0.00 0.09 0.00 89 993.9
20211127073108 33 215 3.0 5.0 0.00 0.09 0.00 90 993.9
20211127071623 32 247 4.0 7.0 0.00 0.09 0.00 89 993.8
20211127070103 33 257 8.0 11.0 0.00 0.09 0.00 90 993.6
20211127064629 32 254 7.0 11.0 0.00 0.09 0.00 90 993.5
20211127063106 32 246 7.0 11.0 0.00 0.09 0.00 90 993.2
20211127061637 32 211 3.0 6.0 0.00 0.09 0.00 90 993.1
20211127060101 32 250 5.0 9.0 0.00 0.09 0.00 89 993.0
20211127054633 33 252 8.0 14.0 0.00 0.09 0.00 89 993.0
20211127053110 34 240 13.0 19.0 0.00 0.09 0.00 89 993.0
20211127051554 34 257 13.0 18.0 0.00 0.09 0.00 90 992.6
20211127050141 34 246 14.0 18.0 0.00 0.09 0.00 90 992.6
20211127044637 34 263 13.0 19.0 0.00 0.09 0.00 90 992.3
20211127043138 34 231 12.0 17.0 0.00 0.09 0.00 90 992.1
20211127041624 34 230 11.0 14.0 0.00 0.09 0.00 91 991.7
20211127040115 34 270 7.0 10.0 0.00 0.09 0.00 91 991.1
20211127034610 34 252 4.0 9.0 0.00 0.10 0.00 91 990.9
20211127033201 34 252 7.0 11.0 0.00 0.10 0.00 91 990.6
20211127031620 34 240 12.0 17.0 0.00 0.10 0.00 91 990.7
20211127030146 34 234 12.0 17.0 0.00 0.10 0.00 91 991.0
20211127024603 34 220 7.0 12.0 0.00 0.11 0.00 91 990.8
20211127023139 35 229 3.0 13.0 0.00 0.11 0.00 91 990.2
20211127021614 36 336 3.0 8.0 0.00 0.11 0.00 92 990.4
20211127020105 36 286 2.0 12.0 0.00 0.11 0.00 92 990.3
20211127014559 36 259 8.0 19.0 0.00 0.11 0.00 92 990.0
20211127013202 36 238 14.0 19.0 0.00 0.11 0.00 93 989.9
20211127011556 36 229 10.0 16.0 0.00 0.11 0.00 93 989.9
20211127010059 36 227 3.0 8.0 0.00 0.11 0.00 93 990.1
20211127004623 36 265 6.0 11.0 0.00 0.11 0.00 93 990.2
20211127003059 36 261 9.0 12.0 0.00 0.11 0.00 94 990.0
20211127001750 36 254 6.0 10.0 0.00 0.11 0.00 94 989.9
20211127000101 36 212 4.0 8.0 0.00 0.11 0.00 94 989.8
20211126234623 36 217 5.0 10.0 0.00 0.11 0.00 94 989.6
20211126233155 36 222 5.0 8.0 0.00 0.11 0.00 94 989.6
20211126231642 36 213 0.0 4.0 0.00 0.11 0.00 94 989.6
20211126230118 36 186 2.0 4.0 0.00 0.11 0.00 94 989.4
20211126224753 36 167 1.0 5.0 0.00 0.11 0.11 94 989.2
20211126223158 36 167 2.0 5.0 0.00 0.11 0.11 94 989.2
20211126221710 36 165 2.0 5.0 0.00 0.11 0.11 94 989.3
20211126220130 36 210 3.0 9.0 0.00 0.11 0.11 94 989.0
20211126214623 36 151 4.0 8.0 0.00 0.11 0.11 94 989.1
20211126213143 36 202 5.0 12.0 0.00 0.11 0.11 94 989.4
20211126211634 36 161 4.0 10.0 0.00 0.11 0.11 94 989.1
20211126210152 36 163 6.0 10.0 0.00 0.11 0.11 94 989.0
20211126204604 36 191 4.0 6.0 0.00 0.11 0.11 94 989.1
20211126203149 36 169 3.0 5.0 0.00 0.11 0.11 94 989.3
20211126201621 36 152 2.0 4.0 0.00 0.11 0.11 94 989.4
20211126200118 36 146 0.0 2.0 0.00 0.11 0.11 94 989.5
20211126194619 36 0 0.0 2.0 0.00 0.11 0.11 94 989.9
20211126193110 36 146 1.0 4.0 0.00 0.11 0.11 94 990.0
20211126191657 37 146 2.0 3.0 0.00 0.11 0.11 94 990.2
20211126190106 37 0 0.0 0.0 0.00 0.11 0.11 94 990.3
20211126184557 37 0 0.0 1.0 0.00 0.11 0.11 94 990.5
20211126183158 37 0 0.0 2.0 0.00 0.11 0.11 94 990.5
20211126181606 37 146 1.0 3.0 0.00 0.11 0.11 94 990.6
20211126180124 37 146 0.0 2.0 0.01 0.11 0.11 94 991.1
20211126174552 37 0 0.0 3.0 0.02 0.11 0.11 94 991.7
20211126173103 37 165 4.0 9.0 0.02 0.10 0.10 94 992.0
20211126171704 37 150 4.0 9.0 0.03 0.10 0.10 93 992.2
20211126170133 38 165 2.0 7.0 0.03 0.09 0.09 93 992.3
20211126164605 38 279 1.0 2.0 0.03 0.08 0.08 93 992.3
20211126163046 38 279 1.0 3.0 0.03 0.07 0.07 93 992.3
20211126161628 38 279 2.0 3.0 0.01 0.06 0.06 93 992.4
20211126160204 38 280 0.0 1.0 0.00 0.05 0.05 93 992.7
20211126154603 38 0 0.0 3.0 0.01 0.05 0.05 93 993.0
20211126153238 38 279 1.0 3.0 0.00 0.04 0.04 93 993.2
20211126151700 38 0 0.0 7.0 0.01 0.04 0.04 93 993.5
20211126150136 38 0 2.0 6.0 0.01 0.04 0.04 93 993.7
20211126144759 38 148 3.0 6.0 0.00 0.03 0.03 92 993.9
20211126143134 38 169 3.0 8.0 0.00 0.03 0.03 92 994.1
20211126141714 38 159 5.0 10.0 0.00 0.03 0.03 92 994.4
20211126140123 38 173 4.0 9.0 0.00 0.03 0.03 92 994.6
20211126134557 38 182 5.0 10.0 0.00 0.03 0.03 92 994.9
20211126133248 38 184 4.0 7.0 0.00 0.03 0.03 91 995.2
20211126131637 38 196 4.0 6.0 0.00 0.03 0.03 91 995.4
20211126130226 38 208 3.0 6.0 0.00 0.03 0.03 90 995.8
20211126124835 39 192 5.0 8.0 0.00 0.03 0.03 90 996.2
20211126123136 39 165 4.0 9.0 0.00 0.02 0.02 89 996.6
20211126121746 39 132 5.0 11.0 0.00 0.02 0.02 88 997.0
20211126120111 39 169 5.0 13.0 0.00 0.02 0.02 88 997.3
20211126114716 39 144 8.0 18.0 0.00 0.02 0.02 89 997.4
20211126113122 39 177 7.0 16.0 0.00 0.02 0.02 89 997.8
20211126111600 39 200 2.0 6.0 0.00 0.02 0.02 89 998.1